Location: Unspecified
(0.0000°N, 0.0000°E)
Time: 15:40:45
(UTC+02:00)

Cosmos 1812 Rocket - Visible Passes

Search period start: 01 September 2014 00:00
Search period end: 11 September 2014 00:00
Orbit: 608 x 634 km, 82.5° (Epoch: 31 August)

Date Brightness Start Highest point End Pass type
(mag) Time Alt. Az. Time Alt. Az. Time Alt. Az.
01 Sep 7.2 07:32:24 10° ENE 07:34:34 13° E 07:36:44 10° ESE visible
01 Sep 6.8 21:18:40 10° WSW 21:21:08 15° W 21:23:36 10° NW visible
03 Sep 3.9 20:14:54 10° S 20:19:13 73° W 20:23:31 10° N visible
04 Sep 5.8 20:33:16 10° SSW 20:37:03 30° W 20:40:50 10° NNW visible
05 Sep 7.0 07:05:43 10° NE 07:08:21 16° E 07:10:59 10° ESE visible
05 Sep 7.1 20:52:55 10° WSW 20:54:54 13° W 20:56:53 10° WNW visible
06 Sep 5.6 07:22:09 10° NNE 07:26:12 35° E 07:30:15 10° SSE visible
09 Sep 6.6 06:39:09 10° NE 06:42:08 18° E 06:45:07 10° SE visible
09 Sep 7.5 20:27:23 10° WSW 20:28:40 11° W 20:29:56 10° WNW visible
10 Sep 5.1 06:55:49 10° NNE 06:59:59 40° E 07:04:09 10° SSE visible
